Tracking 18796 objects as of 20-September-2017
HD Live streaming from Space Station
objects crossing your sky now

METEOR 1-11 DEB

Track METEOR 1-11 DEB now!
10-day predictions


NORAD ID: 36305
Int'l Code: 1972-022D
Perigee: 759.3 km
Apogee: 779.8 km
Inclination: 81.2 °
Period: 100.1 minutes
Semi major axis: 7140 km
RCS: 0.003 m2 (small)
Launch date: March 30, 1972
Source: Commonwealth of Independent States (former USSR) (CIS)
Launch site: PLESETSK MISSILE AND SPACE COMPLEX (PKMTR)

Note: This is SATELLITE DEBRIS
aabbcc
Your satellite tracking list
Your tracking list is empty





NASA's NSSDC Master Catalog

Two Line Element Set (TLE):
1 36305U 72022D   17248.80220721  .00002669  00000-0  86294-3 0  9999
2 36305  81.2027  72.8334 0014336  86.7043 273.5784 14.38825699473578
Source of the keplerian elements: AFSPC